Date,Installs,Update checks
2018-11-28,42,3
2018-11-29,76,22
2018-11-30,76,43
2018-12-01,50,44
2018-12-02,40,66
2018-12-03,58,78
2018-12-04,61,92
2018-12-05,61,111
2018-12-06,65,121
2018-12-07,61,134
2018-12-08,54,125
2018-12-09,42,127
2018-12-10,56,186
2018-12-11,68,192
2018-12-12,72,207
2018-12-13,67,223
2018-12-14,44,238
2018-12-15,26,197
2018-12-16,36,188
2018-12-17,59,262
2018-12-18,80,310
2018-12-19,68,321
2018-12-20,44,329
2018-12-21,50,323
2018-12-22,28,260
2018-12-23,35,266
2018-12-24,51,358
2018-12-25,50,368
2018-12-26,76,366
2018-12-27,67,382
2018-12-28,47,399
2018-12-29,38,373
2018-12-30,34,290
2018-12-31,19,272
2019-01-01,27,297
2019-01-02,63,484
2019-01-03,60,417
2019-01-04,57,458
2019-01-05,41,353
2019-01-06,51,369
2019-01-07,54,505
2019-01-08,47,499
2019-01-09,55,475
2019-01-10,49,507
2019-01-11,41,482
2019-01-12,23,407
2019-01-13,17,391
2019-01-14,30,523
2019-01-15,23,499
2019-01-16,24,524
2019-01-17,16,519
2019-01-18,14,486
2019-01-19,8,406
2019-01-20,6,365
2019-01-21,11,487
2019-01-22,12,496
2019-01-23,13,498
2019-01-24,12,483
2019-01-25,9,472
2019-01-26,10,380
2019-01-27,9,322
2019-01-28,13,474
2019-01-29,10,432
2019-01-30,27,446
2019-01-31,19,395
2019-02-01,14,357
2019-02-02,9,302
2019-02-03,6,274
2019-02-04,3,250
2019-02-05,1,237
2019-02-06,9,208
2019-02-07,3,229
2019-02-08,5,248
2019-02-09,7,238
2019-02-10,7,285
2019-02-11,15,413
2019-02-12,15,421
2019-02-13,19,452
2019-02-14,13,441
2019-02-15,12,451
2019-02-16,7,370
2019-02-17,7,381
2019-02-18,13,480
2019-02-19,10,447
2019-02-20,9,510
2019-02-21,14,486
2019-02-22,20,463
2019-02-23,13,348
2019-02-24,9,353
2019-02-25,22,486
2019-02-26,13,478
2019-02-27,17,479
2019-02-28,14,460
2019-03-01,9,462
2019-03-02,12,388
2019-03-03,14,365
2019-03-04,19,484
2019-03-05,10,492
2019-03-06,13,468
2019-03-07,15,478
2019-03-08,11,473
2019-03-09,10,382
2019-03-10,16,373
2019-03-11,21,522
2019-03-12,16,491
2019-03-13,12,491
2019-03-14,9,493
2019-03-15,9,508
2019-03-16,4,385
2019-03-17,6,378
2019-03-18,5,524
2019-03-19,5,512
2019-03-20,4,485
2019-03-21,5,472
2019-03-22,8,487
2019-03-23,7,380
2019-03-24,6,370
2019-03-25,6,535
2019-03-26,8,506
2019-03-27,11,475
2019-03-28,6,481
2019-03-29,8,468
2019-03-30,3,394
2019-03-31,7,360
2019-04-01,5,496
2019-04-02,4,490
2019-04-03,9,473
2019-04-04,9,442
2019-04-05,6,303
2019-04-06,2,291
2019-04-07,3,343
2019-04-08,7,488
2019-04-09,11,466
2019-04-10,13,484
2019-04-11,12,462
2019-04-12,4,454
2019-04-13,3,360
2019-04-14,11,336
2019-04-15,14,481
2019-04-16,10,479
2019-04-17,9,464
2019-04-18,4,502
2019-04-19,6,464
2019-04-20,7,351
2019-04-21,8,346
2019-04-22,10,532
2019-04-23,16,464
2019-04-24,21,470
2019-04-25,15,489
2019-04-26,9,483
2019-04-27,7,369
2019-04-28,12,513
2019-04-29,11,467
2019-04-30,8,414
2019-05-01,5,305
2019-05-02,8,291
2019-05-03,1,334
2019-05-04,6,318
2019-05-05,13,511
2019-05-06,11,436
2019-05-07,7,506
2019-05-08,5,467
2019-05-09,14,448
2019-05-10,13,440
2019-05-11,11,359
2019-05-12,6,355
2019-05-13,15,478
2019-05-14,16,456
2019-05-15,13,467
2019-05-16,17,463
2019-05-17,20,432
2019-05-18,10,363
2019-05-19,8,343
2019-05-20,16,491
2019-05-21,18,457
2019-05-22,8,452
2019-05-23,8,453
2019-05-24,5,437
2019-05-25,16,361
2019-05-26,6,341
2019-05-27,12,462
2019-05-28,6,461
2019-05-29,3,449
2019-05-30,11,448
2019-05-31,6,444
2019-06-01,11,360
2019-06-02,14,347
2019-06-03,7,481
2019-06-04,8,480
2019-06-05,6,405
2019-06-06,2,417
2019-06-07,7,316
2019-06-08,9,301
2019-06-09,8,374
2019-06-10,16,477
2019-06-11,16,462
2019-06-12,11,452
2019-06-13,15,451
2019-06-14,13,448
2019-06-15,13,375
2019-06-16,10,337
2019-06-17,16,467
2019-06-18,14,454
2019-06-19,13,412
2019-06-20,8,447
2019-06-21,9,428
2019-06-22,13,323
2019-06-23,14,338
2019-06-24,14,517
2019-06-25,7,436
2019-06-26,10,448
2019-06-27,11,435
2019-06-28,10,425
2019-06-29,6,343
2019-06-30,8,338
2019-07-01,10,476
2019-07-02,14,413
2019-07-03,6,433
2019-07-04,15,435
2019-07-05,18,415
2019-07-06,8,350
2019-07-07,8,331
2019-07-08,4,470
2019-07-09,7,438
2019-07-10,6,444
2019-07-11,3,433
2019-07-12,3,393
2019-07-13,5,334
2019-07-14,3,319
2019-07-15,5,457
2019-07-16,6,411
2019-07-17,8,437
2019-07-18,3,430
2019-07-19,5,403
2019-07-20,2,329
2019-07-21,1,307
2019-07-22,1,437
2019-07-23,4,425
2019-07-24,4,407
2019-07-25,6,398
2019-07-26,2,389
2019-07-27,0,307
2019-07-28,1,280
2019-07-29,1,408
2019-07-30,1,410
2019-07-31,6,386
2019-08-01,8,386
2019-08-02,7,410
2019-08-03,5,298
2019-08-04,1,290
2019-08-05,7,401
2019-08-06,7,422
2019-08-07,4,373
2019-08-08,6,379
2019-08-09,3,386
2019-08-10,6,331
2019-08-11,2,315
2019-08-12,1,414
2019-08-13,3,372
2019-08-14,5,389
2019-08-15,3,402
2019-08-16,2,364
2019-08-17,0,314
2019-08-18,1,289
2019-08-19,1,403
2019-08-20,4,406
2019-08-21,2,371
2019-08-22,0,332
2019-08-23,1,383
2019-08-24,3,300
2019-08-25,3,272
2019-08-26,4,422
2019-08-27,2,375
2019-08-28,4,386
2019-08-29,2,388
2019-08-30,2,379
2019-08-31,3,287
2019-09-01,0,279
2019-09-02,0,401
2019-09-03,1,377
2019-09-04,4,371
2019-09-05,4,373
2019-09-06,1,393
2019-09-07,3,311
2019-09-08,1,281
2019-09-09,2,380
2019-09-10,2,379
2019-09-11,3,380
2019-09-12,4,372
2019-09-13,1,231
2019-09-14,0,251
2019-09-15,1,301
2019-09-16,1,401
2019-09-17,1,381
2019-09-18,4,377
2019-09-19,2,363
2019-09-20,2,346
2019-09-21,1,283
2019-09-22,4,272
2019-09-23,2,376
2019-09-24,2,367
2019-09-25,0,355
2019-09-26,4,367
2019-09-27,3,365
2019-09-28,1,280
2019-09-29,4,342
2019-09-30,0,295
2019-10-01,1,221
2019-10-02,1,199
2019-10-03,1,186
2019-10-04,3,207
2019-10-05,1,193
2019-10-06,1,245
2019-10-07,0,273
2019-10-08,0,363
2019-10-09,1,367
2019-10-10,2,328
2019-10-11,2,323
2019-10-12,4,322
2019-10-13,2,253
2019-10-14,10,360
2019-10-15,12,323
2019-10-16,18,338
2019-10-17,15,340
2019-10-18,15,319
2019-10-19,7,257
2019-10-20,8,243
2019-10-21,19,375
2019-10-22,18,350
2019-10-23,12,332
2019-10-24,14,347
2019-10-25,14,371
2019-10-26,17,279
2019-10-27,8,275
2019-10-28,17,380
2019-10-29,21,362
2019-10-30,11,366
2019-10-31,22,350
2019-11-01,12,358
2019-11-02,10,302
2019-11-03,9,260
2019-11-04,12,418
2019-11-05,12,372
2019-11-06,17,386
2019-11-07,19,397
2019-11-08,15,347
2019-11-09,11,283
2019-11-10,4,304
2019-11-11,9,411
2019-11-12,6,371
2019-11-13,10,393
2019-11-14,15,373
2019-11-15,9,385
2019-11-16,7,283
2019-11-17,5,284
2019-11-18,20,432
2019-11-19,10,413
2019-11-20,8,414
2019-11-21,12,372
2019-11-22,14,413
2019-11-23,13,309
2019-11-24,9,242
2019-11-25,20,450
2019-11-26,18,385
2019-11-27,8,403
2019-11-28,17,385
2019-11-29,13,424
2019-11-30,16,299
2019-12-01,10,311
2019-12-02,11,431
2019-12-03,22,434
2019-12-04,14,435
2019-12-05,17,400
2019-12-06,10,378
2019-12-07,9,312
2019-12-08,6,312
2019-12-09,15,492
2019-12-10,20,467
2019-12-11,18,471
2019-12-12,13,478
2019-12-13,13,420
2019-12-14,6,323
2019-12-15,9,331
2019-12-16,17,463
2019-12-17,18,436
2019-12-18,20,463
2019-12-19,8,443
2019-12-20,11,447
2019-12-21,17,367
2019-12-22,12,344
2019-12-23,22,501
2019-12-24,12,454
2019-12-25,20,480
2019-12-26,11,471
2019-12-27,13,444
2019-12-28,12,365
2019-12-29,13,367
2019-12-30,11,486
2019-12-31,11,479
2020-01-01,9,335
2020-01-02,9,503
2020-01-03,13,439
2020-01-04,13,362
2020-01-05,7,382
2020-01-06,12,496
2020-01-07,9,459
2020-01-08,6,444
2020-01-09,9,470
2020-01-10,8,448
2020-01-11,2,350
2020-01-12,3,309
2020-01-13,7,473
2020-01-14,7,458
2020-01-15,9,395
2020-01-16,11,398
2020-01-17,7,413
2020-01-18,5,311
2020-01-19,4,372
2020-01-20,5,366
2020-01-21,4,321
2020-01-22,1,297
2020-01-23,2,265
2020-01-24,1,244
2020-01-25,4,230
2020-01-26,4,252
2020-01-27,3,258
2020-01-28,2,295
2020-01-29,3,286
2020-01-30,4,349
2020-01-31,3,341
2020-02-01,7,312
2020-02-02,3,334
2020-02-03,10,358
2020-02-04,3,381
2020-02-05,6,347
2020-02-06,5,366
2020-02-07,10,361
2020-02-08,10,118
2020-02-09,12,162
2020-02-10,12,460
2020-02-11,13,389
2020-02-12,13,427
2020-02-13,8,410
2020-02-14,8,433
2020-02-15,7,370
2020-02-16,9,402
2020-02-17,5,482
2020-02-18,8,402
2020-02-19,8,446
2020-02-20,16,462
2020-02-21,8,461
2020-02-22,13,398
2020-02-23,14,386
2020-02-24,19,494
2020-02-25,10,475
2020-02-26,9,448
2020-02-27,8,483
2020-02-28,8,483
2020-02-29,8,421
2020-03-01,6,433
2020-03-02,13,512
2020-03-03,14,495
2020-03-04,14,485
2020-03-05,15,493
2020-03-06,12,491
2020-03-07,9,402
2020-03-08,5,413
2020-03-09,6,531
2020-03-10,12,463
2020-03-11,12,510
2020-03-12,11,449
2020-03-13,17,494
2020-03-14,8,444
2020-03-15,11,415
2020-03-16,9,512
2020-03-17,5,497
2020-03-18,13,489
2020-03-19,6,485
2020-03-20,6,459
2020-03-21,5,438
2020-03-22,6,399
2020-03-23,4,497
2020-03-24,6,500
2020-03-25,6,493
2020-03-26,3,484
2020-03-27,4,479
2020-03-28,10,407
2020-03-29,5,401
2020-03-30,6,529
2020-03-31,9,486
2020-04-01,13,490
2020-04-02,4,481
2020-04-03,0,487
2020-04-04,3,374
2020-04-05,6,390
2020-04-06,8,406
2020-04-07,13,515
2020-04-08,8,516
2020-04-09,4,517
2020-04-10,2,485
2020-04-11,4,436
2020-04-12,3,406
2020-04-13,8,514
2020-04-14,8,512
2020-04-15,6,501
2020-04-16,9,514
2020-04-17,6,477
2020-04-18,2,434
2020-04-19,6,366
2020-04-20,8,519
2020-04-21,9,506
2020-04-22,7,493
2020-04-23,6,449
2020-04-24,6,457
2020-04-25,4,397
2020-04-26,4,450
2020-04-27,6,483
2020-04-28,4,480
2020-04-29,4,456
2020-04-30,2,440
2020-05-01,3,333
2020-05-02,2,329
2020-05-03,4,318
2020-05-04,5,354
2020-05-05,5,379
2020-05-06,4,478
2020-05-07,5,479
2020-05-08,3,459
2020-05-09,1,424
2020-05-10,6,383
2020-05-11,4,468
2020-05-12,6,451
2020-05-13,4,452
2020-05-14,4,448
2020-05-15,2,458
2020-05-16,8,378
2020-05-17,4,332
2020-05-18,2,508
2020-05-19,6,436
2020-05-20,9,434
2020-05-21,3,438
2020-05-22,6,434
2020-05-23,3,377
2020-05-24,3,361
2020-05-25,2,455
2020-05-26,8,442
2020-05-27,10,450
2020-05-28,8,442
2020-05-29,9,447
2020-05-30,7,362
2020-05-31,4,338
2020-06-01,2,460
2020-06-02,0,436
2020-06-03,5,446
2020-06-04,2,429
2020-06-05,5,427
2020-06-06,6,355
2020-06-07,1,358
2020-06-08,6,450
2020-06-09,5,443
2020-06-10,5,427
2020-06-11,4,421
2020-06-12,7,429
2020-06-13,4,363
2020-06-14,3,368
2020-06-15,4,456
2020-06-16,4,435
2020-06-17,4,429
2020-06-18,2,408
2020-06-19,6,408
2020-06-20,7,357
2020-06-21,2,350
2020-06-22,7,443
2020-06-23,7,454
2020-06-24,4,433
2020-06-25,6,323
2020-06-26,2,342
2020-06-27,6,390
2020-06-28,4,442
2020-06-29,5,422
2020-06-30,8,427
2020-07-01,6,442
2020-07-02,7,418
2020-07-03,7,411
2020-07-04,4,355
2020-07-05,4,341
2020-07-06,3,450
2020-07-07,6,416
2020-07-08,8,405
2020-07-09,11,439
2020-07-10,4,403
2020-07-11,6,370
2020-07-12,2,353
2020-07-13,4,431
2020-07-14,5,411
2020-07-15,0,426
2020-07-16,0,388
2020-07-17,2,389
2020-07-18,2,339
2020-07-19,1,324
2020-07-20,4,421
2020-07-21,2,408
2020-07-22,2,403
2020-07-23,3,384
2020-07-24,0,385
2020-07-25,2,287
2020-07-26,3,328
2020-07-27,5,423
2020-07-28,1,391
2020-07-29,0,378
2020-07-30,1,412
2020-07-31,7,417
2020-08-01,3,345
2020-08-02,2,341
2020-08-03,3,439
2020-08-04,1,403
2020-08-05,3,386
2020-08-06,2,379
2020-08-07,4,406
2020-08-08,1,335
2020-08-09,2,306
2020-08-10,4,427
2020-08-11,4,387
2020-08-12,1,399
2020-08-13,2,376
2020-08-14,2,375
2020-08-15,2,329
2020-08-16,2,309
2020-08-17,3,386
2020-08-18,2,386
2020-08-19,1,392
2020-08-20,3,388
2020-08-21,2,387
2020-08-22,2,323
2020-08-23,3,325
2020-08-24,2,377
2020-08-25,6,373
2020-08-26,3,386
2020-08-27,3,397
2020-08-28,1,404
2020-08-29,0,322
2020-08-30,3,346
2020-08-31,3,409
2020-09-01,4,409
2020-09-02,9,381
2020-09-03,6,373
2020-09-04,6,385
2020-09-05,6,353
2020-09-06,5,322
2020-09-07,3,404
2020-09-08,9,390
2020-09-09,3,364
2020-09-10,7,373
2020-09-11,11,355
2020-09-12,0,319
2020-09-13,1,343
2020-09-14,2,412
2020-09-15,3,399
2020-09-16,6,384
2020-09-17,4,368
2020-09-18,5,361
2020-09-19,4,333
2020-09-20,2,338
2020-09-21,5,421
2020-09-22,5,405
2020-09-23,8,422
2020-09-24,3,417
2020-09-25,10,392
2020-09-26,7,336
2020-09-27,4,396
2020-09-28,4,386
2020-09-29,4,421
2020-09-30,3,351
2020-10-01,2,282
2020-10-02,6,255
2020-10-03,2,283
2020-10-04,1,289
2020-10-05,4,283
2020-10-06,0,328
2020-10-07,2,330
2020-10-08,2,330
2020-10-09,8,446
2020-10-10,5,382
2020-10-11,7,346
2020-10-12,3,439
2020-10-13,6,418
2020-10-14,5,385
2020-10-15,5,425
2020-10-16,8,422
2020-10-17,6,353
2020-10-18,4,345
2020-10-19,13,459
2020-10-20,8,428
2020-10-21,8,434
2020-10-22,4,429
2020-10-23,4,447
2020-10-24,2,346
2020-10-25,7,386
2020-10-26,7,463
2020-10-27,10,433
2020-10-28,1,455
2020-10-29,4,438
2020-10-30,4,446
2020-10-31,5,403
2020-11-01,2,390
2020-11-02,4,470
2020-11-03,3,462
2020-11-04,4,473
2020-11-05,5,471
2020-11-06,3,455
2020-11-07,3,399
2020-11-08,6,399
2020-11-09,2,490
2020-11-10,6,476
2020-11-11,4,515
2020-11-12,6,485
2020-11-13,3,479
2020-11-14,8,424
2020-11-15,3,430
2020-11-16,4,552
2020-11-17,7,523
2020-11-18,5,525
2020-11-19,4,527
2020-11-20,3,498
2020-11-21,3,452
2020-11-22,4,446
2020-11-23,3,523
2020-11-24,5,554
2020-11-25,6,510
2020-11-26,2,521
2020-11-27,5,540
2020-11-28,3,469
2020-11-29,4,474
2020-11-30,5,598
2020-12-01,2,578
2020-12-02,5,572
2020-12-03,4,556
2020-12-04,0,538
2020-12-05,2,488
2020-12-06,6,501
2020-12-07,5,613
2020-12-08,8,582
2020-12-09,5,621
2020-12-10,2,595
2020-12-11,1,561
2020-12-12,3,515
2020-12-13,3,524
2020-12-14,4,652
2020-12-15,5,602
2020-12-16,9,613
2020-12-17,2,599
2020-12-18,3,594
2020-12-19,3,512
2020-12-20,3,541
2020-12-21,5,606
2020-12-22,4,593
2020-12-23,1,639
2020-12-24,5,618
2020-12-25,3,601
2020-12-26,3,580
2020-12-27,2,573
2020-12-28,4,695
2020-12-29,6,654
2020-12-30,2,637
2020-12-31,1,614
2021-01-01,4,476
2021-01-02,2,525
2021-01-03,2,604
2021-01-04,6,672
2021-01-05,5,670
2021-01-06,5,651
2021-01-07,4,660
2021-01-08,2,595
2021-01-09,0,556
2021-01-10,4,532
2021-01-11,5,631
2021-01-12,2,596
2021-01-13,3,584
2021-01-14,0,593
2021-01-15,4,603
2021-01-16,1,516
2021-01-17,4,526
2021-01-18,6,642
2021-01-19,3,623
2021-01-20,1,627
2021-01-21,3,625
2021-01-22,2,614
2021-01-23,2,580
2021-01-24,2,520
2021-01-25,6,652
2021-01-26,4,643
2021-01-27,3,648
2021-01-28,2,667
2021-01-29,3,637
2021-01-30,4,520
2021-01-31,4,523
2021-02-01,3,710
2021-02-02,6,644
2021-02-03,2,678
2021-02-04,1,707
2021-02-05,0,657
2021-02-06,1,566
2021-02-07,2,594
2021-02-08,1,555
2021-02-09,2,427
2021-02-10,1,425
2021-02-11,0,354
2021-02-12,1,311
2021-02-13,0,301
2021-02-14,1,236
2021-02-15,0,522
2021-02-16,0,515
2021-02-17,0,534
2021-02-18,5,613
2021-02-19,3,634
2021-02-20,1,595
2021-02-21,3,589
2021-02-22,0,648
2021-02-23,3,662
2021-02-24,2,704
2021-02-25,2,691
2021-02-26,1,690
2021-02-27,4,613
2021-02-28,1,639
2021-03-01,4,832
2021-03-02,3,760
2021-03-03,4,785
2021-03-04,5,791
2021-03-05,4,784
2021-03-06,3,720
2021-03-07,2,675
2021-03-08,2,673
2021-03-09,3,580
2021-03-10,8,651
2021-03-11,2,646
2021-03-12,5,642
2021-03-13,3,563
2021-03-14,3,550
2021-03-15,1,619
2021-03-16,4,675
2021-03-17,4,550
2021-03-18,3,617
2021-03-19,3,579
2021-03-20,4,528
2021-03-21,7,483
2021-03-22,4,556
2021-03-23,9,518
2021-03-24,5,566
2021-03-25,2,672
2021-03-26,1,568
2021-03-27,0,457
2021-03-28,2,492
2021-03-29,0,510
2021-03-30,6,576
2021-03-31,4,481
2021-04-01,1,561
2021-04-02,0,481
2021-04-03,3,347
2021-04-04,2,417
2021-04-05,2,423
2021-04-06,9,591
2021-04-07,4,581
2021-04-08,4,574
2021-04-09,2,517
2021-04-10,3,503
2021-04-11,6,472
2021-04-12,4,464
2021-04-13,6,495
2021-04-14,9,616
2021-04-15,7,532
2021-04-16,4,772
2021-04-17,4,698
2021-04-18,4,682
2021-04-19,7,821
2021-04-20,6,838
2021-04-21,2,804
2021-04-22,4,808
2021-04-23,5,816
2021-04-24,5,679
2021-04-25,6,814
2021-04-26,10,821
2021-04-27,6,735
2021-04-28,10,839
2021-04-29,4,784
2021-04-30,2,745
2021-05-01,4,584
2021-05-02,1,556
2021-05-03,1,589
2021-05-04,2,624
2021-05-05,2,681
2021-05-06,4,793
2021-05-07,8,809
2021-05-08,4,797
2021-05-09,7,642
2021-05-10,11,838
2021-05-11,4,780
2021-05-12,4,742
2021-05-13,6,785
2021-05-14,3,817
2021-05-15,9,724
2021-05-16,3,735
2021-05-17,6,834
2021-05-18,7,820
2021-05-19,3,824
2021-05-20,4,779
2021-05-21,4,773
2021-05-22,4,755
2021-05-23,2,842
2021-05-24,3,886
2021-05-25,2,845
2021-05-26,3,844
2021-05-27,7,794
2021-05-28,2,791
2021-05-29,2,728
2021-05-30,5,708
2021-05-31,6,856
2021-06-01,4,784
2021-06-02,5,852
2021-06-03,1,834
2021-06-04,4,803
2021-06-05,0,490
2021-06-06,3,753
2021-06-07,5,818
2021-06-08,6,828
2021-06-09,7,816
2021-06-10,5,803
2021-06-11,3,788
2021-06-12,4,663
2021-06-13,5,653
2021-06-14,1,706
2021-06-15,11,885
2021-06-16,7,865
2021-06-17,3,840
2021-06-18,2,820
2021-06-19,5,738
2021-06-20,8,725
2021-06-21,5,854
2021-06-22,7,804
2021-06-23,3,824
2021-06-24,12,882
2021-06-25,7,802
2021-06-26,2,747
2021-06-27,4,738
2021-06-28,1,833
2021-06-29,8,795
2021-06-30,4,809
2021-07-01,5,787
2021-07-02,5,777
2021-07-03,6,689
2021-07-04,5,658
2021-07-05,7,775
2021-07-06,10,751
2021-07-07,8,744
2021-07-08,4,770
2021-07-09,8,728
2021-07-10,3,628
2021-07-11,2,642
2021-07-12,5,728
2021-07-13,4,771
2021-07-14,9,743
2021-07-15,6,699
2021-07-16,1,688
2021-07-17,5,633
2021-07-18,3,22
2021-07-19,8,54
2021-07-20,4,734
2021-07-21,7,677
2021-07-22,3,694
2021-07-23,2,663
2021-07-24,2,624
2021-07-25,3,605
2021-07-26,0,729
2021-07-27,1,704
2021-07-28,5,677
2021-07-29,8,702
2021-07-30,3,689
2021-07-31,3,598
2021-08-01,0,581
2021-08-02,5,725
2021-08-03,9,692
2021-08-04,4,685
2021-08-05,9,692
2021-08-06,1,692
2021-08-07,6,633
2021-08-08,1,580
2021-08-09,6,739
2021-08-10,14,751
2021-08-11,7,740
2021-08-12,5,708
2021-08-13,2,741
2021-08-14,0,603
2021-08-15,2,628
2021-08-16,3,721
2021-08-17,11,739
2021-08-18,6,768
2021-08-19,6,722
2021-08-20,7,742
2021-08-21,3,627
2021-08-22,6,613
2021-08-23,5,755
2021-08-24,4,777
2021-08-25,4,736
2021-08-26,10,780
2021-08-27,10,701
2021-08-28,5,647
2021-08-29,2,643
2021-08-30,9,796
2021-08-31,6,762
2021-09-01,6,758
2021-09-02,5,796
2021-09-03,4,795
2021-09-04,3,666
2021-09-05,3,662
2021-09-06,8,770
2021-09-07,5,723
2021-09-08,4,814
2021-09-09,7,770
2021-09-10,2,782
2021-09-11,5,649
2021-09-12,3,633
2021-09-13,13,819
2021-09-14,3,753
2021-09-15,3,807
2021-09-16,2,804
2021-09-17,5,784
2021-09-18,5,724
2021-09-19,2,639
2021-09-20,5,609
2021-09-21,3,646
2021-09-22,7,805
2021-09-23,5,799
2021-09-24,4,829
2021-09-25,2,719
2021-09-26,5,789
2021-09-27,1,803
2021-09-28,4,782
2021-09-29,7,800
2021-09-30,3,719
2021-10-01,5,595
2021-10-02,3,541
2021-10-03,2,615
2021-10-04,1,629
2021-10-05,4,607
2021-10-06,2,666
2021-10-07,1,676
2021-10-08,8,789
2021-10-09,3,789
2021-10-10,7,678
2021-10-11,5,794
2021-10-12,7,790
2021-10-13,6,780
2021-10-14,4,806
2021-10-15,4,801
2021-10-16,1,701
2021-10-17,8,674
2021-10-18,9,767
2021-10-19,6,809
2021-10-20,6,769
2021-10-21,11,776
2021-10-22,7,772
2021-10-23,1,687
2021-10-24,7,697
2021-10-25,5,806
2021-10-26,6,756
2021-10-27,8,820
2021-10-28,3,777
2021-10-29,3,841
2021-10-30,6,703
2021-10-31,4,718
2021-11-01,4,819
2021-11-02,4,830
2021-11-03,10,829
2021-11-04,13,844
2021-11-05,7,784
2021-11-06,7,734
2021-11-07,9,685
2021-11-08,12,802
2021-11-09,13,809
2021-11-10,9,815
2021-11-11,10,813
2021-11-12,3,798
2021-11-13,7,709
2021-11-14,11,664
2021-11-15,6,802
2021-11-16,11,824
2021-11-17,6,787
2021-11-18,14,796
2021-11-19,13,791
2021-11-20,4,745
2021-11-21,8,690
2021-11-22,5,771
2021-11-23,11,834
2021-11-24,3,784
2021-11-25,7,801
2021-11-26,5,792
2021-11-27,8,713
2021-11-28,5,693
2021-11-29,8,854
2021-11-30,3,816
2021-12-01,9,808
2021-12-02,1,785
2021-12-03,8,832
2021-12-04,4,708
2021-12-05,3,734
2021-12-06,8,827
2021-12-07,4,818
2021-12-08,2,818
2021-12-09,1,845
2021-12-10,7,840
2021-12-11,3,738
2021-12-12,3,729
2021-12-13,4,846
2021-12-14,4,844
2021-12-15,8,824
2021-12-16,5,830
2021-12-17,4,811
2021-12-18,6,738
2021-12-19,7,710
2021-12-20,2,830
2021-12-21,3,789
2021-12-22,9,840
2021-12-23,4,847
2021-12-24,4,830
2021-12-25,7,710
2021-12-26,2,717
2021-12-27,6,836
2021-12-28,3,880
2021-12-29,4,834
2021-12-30,5,827
2021-12-31,6,809
2022-01-01,4,636
2022-01-02,3,685
2022-01-03,2,695
2022-01-04,9,821
2022-01-05,6,839
2022-01-06,13,834
2022-01-07,2,794
2022-01-08,2,683
2022-01-09,2,32
2022-01-10,6,0
2022-01-11,6,857
2022-01-12,3,791
2022-01-13,3,809
2022-01-14,4,790
2022-01-15,4,724
2022-01-16,5,716
2022-01-17,2,814
2022-01-18,1,808
2022-01-19,7,819
2022-01-20,4,813
2022-01-21,2,788
2022-01-22,4,752
2022-01-23,3,690
2022-01-24,4,751
2022-01-25,3,731
2022-01-26,3,769
2022-01-27,4,710
2022-01-28,2,736
2022-01-29,1,616
2022-01-30,0,575
2022-01-31,0,473
2022-02-01,1,502
2022-02-02,0,517
2022-02-03,3,522
2022-02-04,0,511
2022-02-05,2,533
2022-02-06,1,566
2022-02-07,4,720
2022-02-08,3,733
2022-02-09,2,752
2022-02-10,5,777
2022-02-11,4,772
2022-02-12,1,676
2022-02-13,3,682
2022-02-14,7,777
2022-02-15,5,729
2022-02-16,6,775
2022-02-17,3,798
2022-02-18,4,766
2022-02-19,5,683
2022-02-20,2,694
2022-02-21,2,804
2022-02-22,2,834
2022-02-23,2,800
2022-02-24,1,805
2022-02-25,1,790
2022-02-26,0,709
2022-02-27,4,671
2022-02-28,2,825
2022-03-01,2,831
2022-03-02,4,807
2022-03-03,7,813
2022-03-04,4,801
2022-03-05,1,719
2022-03-06,0,738
2022-03-07,3,841
2022-03-08,2,853
2022-03-09,3,909
2022-03-10,1,841
2022-03-11,3,811
2022-03-12,6,750
2022-03-13,2,798
2022-03-14,1,880
2022-03-15,3,902
2022-03-16,2,886
2022-03-17,3,880
2022-03-18,4,844
2022-03-19,2,772
2022-03-20,4,783
2022-03-21,0,887
2022-03-22,3,871
2022-03-23,5,879
2022-03-24,3,889
2022-03-25,1,904
2022-03-26,1,805
2022-03-27,2,739
2022-03-28,4,875
2022-03-29,2,894
2022-03-30,7,904
2022-03-31,3,897
2022-04-01,3,883
2022-04-02,5,821
2022-04-03,5,746
2022-04-04,2,753
2022-04-05,3,782
2022-04-06,6,905
2022-04-07,3,902
2022-04-08,4,921
2022-04-09,5,825
2022-04-10,3,774
2022-04-11,6,921
2022-04-12,6,902
2022-04-13,5,941
2022-04-14,3,904
2022-04-15,4,922
2022-04-16,2,797
2022-04-17,4,812
2022-04-18,10,901
2022-04-19,4,945
2022-04-20,2,914
2022-04-21,4,922
2022-04-22,3,871
2022-04-23,1,853
2022-04-24,2,882
2022-04-25,5,913
2022-04-26,4,903
2022-04-27,5,883
2022-04-28,4,901
2022-04-29,1,889
2022-04-30,5,750
2022-05-01,1,750
2022-05-02,6,746
2022-05-03,4,777
2022-05-04,2,840
2022-05-05,4,894
2022-05-06,3,889
2022-05-07,5,865
2022-05-08,2,770
2022-05-09,4,917
2022-05-10,6,897
2022-05-11,3,947
2022-05-12,1,916
2022-05-13,4,911
2022-05-14,2,817
2022-05-15,5,805
2022-05-16,4,871
2022-05-17,6,910
2022-05-18,0,901
2022-05-19,6,911
2022-05-20,8,898
2022-05-21,5,767
2022-05-22,5,806
2022-05-23,6,928
2022-05-24,9,931
2022-05-25,0,860
2022-05-26,10,928
2022-05-27,3,891
2022-05-28,1,843
2022-05-29,5,792
2022-05-30,2,879
2022-05-31,6,891
2022-06-01,2,856
2022-06-02,3,878
2022-06-03,4,718
2022-06-04,3,750
2022-06-05,2,758
2022-06-06,9,909
2022-06-07,0,869
2022-06-08,4,889
2022-06-09,0,910
2022-06-10,2,869
2022-06-11,2,792
2022-06-12,1,746
2022-06-13,1,887
2022-06-14,6,876
2022-06-15,2,831
2022-06-16,2,901
2022-06-17,1,824
2022-06-18,5,753
2022-06-19,2,760
2022-06-20,1,858
2022-06-21,3,828
2022-06-22,2,837
2022-06-23,4,823
2022-06-24,3,839
2022-06-25,3,739
2022-06-26,2,706
2022-06-27,6,847
2022-06-28,2,824
2022-06-29,4,820
2022-06-30,4,811
2022-07-01,6,743
2022-07-02,1,708
2022-07-03,1,680
2022-07-04,3,781
2022-07-05,3,785
2022-07-06,4,795
2022-07-07,2,791
2022-07-08,1,778
2022-07-09,3,670
2022-07-10,2,658
2022-07-11,1,748
2022-07-12,1,793
2022-07-13,2,763
2022-07-14,1,744
2022-07-15,2,734
2022-07-16,0,654
2022-07-17,2,654
2022-07-18,2,787
2022-07-19,2,750
2022-07-20,3,743
2022-07-21,1,746
2022-07-22,1,718
2022-07-23,1,650
2022-07-24,1,425
2022-07-25,3,756
2022-07-26,0,733
2022-07-27,3,736
2022-07-28,0,722
2022-07-29,2,737
2022-07-30,0,626
2022-07-31,1,606
2022-08-01,3,724
2022-08-02,2,720
2022-08-03,1,679
2022-08-04,2,717
2022-08-05,1,710
2022-08-06,0,613
2022-08-07,2,621
2022-08-08,0,676
2022-08-09,2,747
2022-08-10,2,710
2022-08-11,2,723
2022-08-12,2,704
2022-08-13,2,638
2022-08-14,2,608
2022-08-15,2,696
2022-08-16,2,726
2022-08-17,1,717
2022-08-18,3,716
2022-08-19,1,716
2022-08-20,0,630
2022-08-21,2,631
2022-08-22,4,749
2022-08-23,0,709
2022-08-24,1,701
2022-08-25,2,756
2022-08-26,2,704
2022-08-27,2,635
2022-08-28,0,633
2022-08-29,3,756
2022-08-30,2,765
2022-08-31,3,727
2022-09-01,1,746
2022-09-02,1,760
2022-09-03,2,658
2022-09-04,1,658
2022-09-05,2,734
2022-09-06,3,760
2022-09-07,2,739
2022-09-08,3,764
2022-09-09,4,739
2022-09-10,4,581
2022-09-11,2,640
2022-09-12,1,670
2022-09-13,2,781
2022-09-14,0,731
2022-09-15,1,785
2022-09-16,4,765
2022-09-17,3,680
2022-09-18,1,672
2022-09-19,3,773
2022-09-20,2,750
2022-09-21,3,739
2022-09-22,4,755